Location: New Frontier Mobile Home Park
(32.8448°N, 116.9675°W)
Time: 23:04:57
(UTC+00:00)

Cosmos 1072 Rocket - Pass Details

Date: 14 July 2020
Orbit: 948 x 1009 km, 82.9° (Epoch: 05 August)

Event Time Altitude Azimuth Distance (km) Brightness Sun altitude
Exits shadow 11:02:36 28° 198° (SSW) 1,765 5.4 -19.4°
Maximum altitude 11:06:07 72° 276° (W) 1,034 4.5 -18.8°
Drops below altitude 10° 11:12:21 10° 1° (N) 2,724 7.4 -17.9°
Sets 11:14:52 0° 4° (N) 3,666 8.2 -17.5°
